Flag for Switzerland Weather past 2 weeks in Chur, Graubünden, Switzerland

Now
45 °F

Cool.


Feels Like: 45 °F
Forecast: 28 / 54 °F
Wind: 2 mph from South

Location: Chur-Ems

Current Time: Dec 21, 2014 at 2:38:50 PM

Latest Report: Dec 21, 2014 at 2:00 PM


Visibility: N/A

Pressure: 30.54 "Hg

Humidity: 50%

Dew point: 28 °F

Location of ChurLocation

Historic Weather in Chur — Graph

°F

Chur temperature yesterday

Maximum temperature yesterday: 49 °F (at 2:00 PM)
Minimum temperature yesterday: 40 °F (at 9:00 AM)
Average temperature yesterday: 43 °F

Past Weeks' High & Low Weather Summary

 TemperatureHumidityPressure
High57 °F (Dec 13, 2:00 PM)97% (Dec 16, 8:00 AM)30.60 "Hg (Dec 16, 8:00 AM)
Low27 °F (Dec 10, 8:00 AM)30% (Dec 12, 3:00 PM)29.90 "Hg (Dec 17, 2:00 PM)
Average41 °F75%30.17 "Hg
* Reported Dec 6 1:00 PM — Dec 21 1:00 PM, Chur, Weather by CustomWeather, © 2014

Note: Actual official high and low records may vary slightly from our data, if they occured in-between our weather recording intervals... More about our weather records

Advertising

Chur weather history for previous 24 hours

 ConditionsComfort  
Time TempWeatherWind HumidityBarometerVisibility
1:00 PM
Dec 21
44 °FPartly sunny.2 mph59%30.56 "Hg16 mi
12:00 PM42 °FQuite cool.1 mph67%30.58 "HgN/A
11:00 AM40 °FChilly.3 mph74%30.60 "HgN/A
10:00 AM39 °FPassing clouds.No wind74%30.60 "Hg12 mi
9:00 AM39 °FChilly.2 mph77%30.60 "HgN/A
8:00 AM39 °FChilly.2 mph75%30.57 "HgN/A
7:00 AM40 °FPassing clouds.7 mph69%30.57 "Hg8 mi
6:00 AM40 °FQuite cool.7 mph68%30.56 "HgN/A
5:00 AM41 °FQuite cool.6 mph65%30.55 "HgN/A
4:00 AM42 °FOvercast.9 mph64%30.53 "Hg8 mi
3:00 AM42 °FQuite cool.12 mph58%30.51 "HgN/A
2:00 AM43 °FQuite cool.7 mph58%30.49 "HgN/A
1:00 AM42 °FOvercast.2 mph63%30.48 "Hg7 mi
12:00 AM42 °FQuite cool.6 mph57%30.47 "HgN/A
11:00 PM
Dec 20
42 °FQuite cool.3 mph58%30.46 "HgN/A
9:00 PM41 °FQuite cool.12 mph65%30.42 "HgN/A
8:00 PM42 °FQuite cool.13 mph69%30.38 "HgN/A
7:00 PM43 °FFog.12 mph74%30.35 "Hg7 mi
6:00 PM43 °FQuite cool.8 mph80%30.31 "HgN/A
5:00 PM43 °FQuite cool.6 mph79%30.29 "HgN/A
4:00 PM45 °FPartly sunny.9 mph79%30.28 "Hg16 mi
3:00 PM48 °FCool.2 mph71%30.26 "HgN/A
2:00 PM49 °FCool.3 mph70%30.27 "HgN/A
Weather by CustomWeather, © 2014

See weather overviewHow to use our weather pages